Location: Unspecified
(0.0000°N, 0.0000°E)
Time: 21:20:13
(UTC+00:00)

Vanguard 2 - Visible Passes

Search period start: 09 February 2026 00:00
Search period end: 19 February 2026 00:00
Orbit: 553 x 2897 km, 32.9° (Epoch: 9 February)

Date Brightness Start Highest point End Pass type
(mag) Time Alt. Az. Time Alt. Az. Time Alt. Az.
9 Feb 11.7 00:17:22 10° SSW 00:17:52 10° SSW 00:17:52 10° SSW visible
9 Feb 10.7 02:40:02 13° ESE 02:40:02 13° ESE 02:40:47 10° ESE visible
9 Feb 7.6 04:41:06 27° WSW 04:44:58 85° NW 04:49:41 10° NE visible
9 Feb 11.7 19:49:47 10° WSW 20:02:32 26° SSW 20:15:45 10° SSE visible
9 Feb 11.7 22:11:53 10° SW 22:19:19 14° S 22:26:03 10° SSE visible
10 Feb 10.5 02:52:38 15° E 02:52:38 15° E 02:53:41 10° E visible
10 Feb 7.8 04:53:41 28° WSW 04:56:54 54° NW 05:01:30 10° NE visible
10 Feb 11.8 20:03:51 10° WSW 20:15:35 22° SSW 20:27:32 10° SSE visible
10 Feb 11.6 22:25:40 10° SSW 22:32:51 14° S 22:38:14 11° SSE visible
11 Feb 10.3 03:05:04 17° E 03:05:04 17° E 03:06:17 10° E visible
11 Feb 8.4 05:06:06 24° W 05:08:44 34° NW 05:13:04 10° NNE visible
11 Feb 11.8 20:18:10 10° SW 20:28:50 19° SSW 20:39:30 10° SSE visible
11 Feb 11.5 22:38:39 10° SSW 22:46:21 14° S 22:48:49 14° SSE visible
12 Feb 10.1 03:17:19 18° ENE 03:17:19 18° ENE 03:18:36 10° ENE visible
12 Feb 8.9 05:18:20 18° WNW 05:20:31 22° NW 05:24:20 10° N visible
12 Feb 11.6 18:13:57 10° W 18:25:50 31° SSW 18:40:25 10° SSE visible
12 Feb 11.8 20:32:33 10° SW 20:42:16 17° S 20:51:49 10° SSE visible
12 Feb 11.5 22:50:59 10° SSW 22:59:23 16° S 22:59:23 16° S visible
13 Feb 10.0 03:29:25 19° NE 03:29:25 19° NE 03:30:41 10° NE visible
13 Feb 9.4 05:30:26 12° WNW 05:32:22 14° NW 05:35:00 10° N visible
13 Feb 11.7 18:27:27 10° WSW 18:38:44 26° SSW 18:52:06 10° SSE visible
13 Feb 11.7 20:46:43 10° SW 20:55:49 16° S 21:04:37 10° SSE visible
13 Feb 11.5 23:02:54 10° SSW 23:09:56 18° S 23:09:56 18° S visible
14 Feb 9.9 03:41:23 18° NE 03:41:23 18° NE 03:42:33 10° NE visible
14 Feb 11.8 18:41:17 10° WSW 18:51:49 22° SSW 19:03:54 10° SSE visible
14 Feb 11.7 21:00:23 10° SSW 21:09:25 16° S 21:18:00 10° SSE visible
14 Feb 11.5 23:14:38 10° SSW 23:20:29 19° S 23:20:29 19° S visible
15 Feb 9.9 03:53:13 16° NNE 03:53:13 16° NNE 03:54:14 10° NNE visible
15 Feb 11.8 18:55:21 10° SW 19:05:06 19° SSW 19:15:55 10° SSE visible
15 Feb 11.6 21:13:25 10° SSW 21:23:00 16° S 21:30:10 12° SSE visible
15 Feb 11.5 23:26:15 10° SSW 23:31:03 18° SSW 23:31:03 18° SSW visible
16 Feb 10.0 04:04:56 14° NNE 04:04:56 14° NNE 04:05:42 10° NNE visible
16 Feb 11.8 19:09:30 10° SW 19:18:32 17° S 19:28:18 10° SSE visible
16 Feb 11.4 21:25:53 10° SSW 21:36:28 18° S 21:40:44 16° SSE visible
16 Feb 11.6 23:37:51 10° SW 23:41:37 18° SSW 23:41:37 18° SSW visible
17 Feb 10.1 04:16:33 11° N 04:16:33 11° N 04:16:53 10° N visible
17 Feb 11.8 19:23:28 10° SSW 19:32:05 16° S 19:41:12 10° SSE visible
17 Feb 11.3 21:37:58 10° SSW 21:49:46 21° SSE 21:51:18 21° SSE visible
17 Feb 11.6 23:49:29 10° SW 23:52:12 16° SSW 23:52:12 16° SSW visible
18 Feb 11.7 19:36:58 10° SSW 19:45:40 16° S 19:54:43 10° SE visible
18 Feb 11.2 21:49:48 10° SSW 22:01:55 25° SSE 22:01:55 25° SSE visible
